TimeEDT,TemperatureF,Dew PointF,Humidity,Sea Level PressureIn,VisibilityMPH,Wind Direction,Wind SpeedMPH,Gust SpeedMPH,PrecipitationIn,Events,Conditions,WindDirDegrees,DateUTC
12:53 AM,55.0,45.0,69,30.19,10.0,NNE,3.5,-,N/A,,Clear,30,2013-10-09 04:53:00
1:53 AM,54.0,45.0,72,30.18,10.0,NE,3.5,-,N/A,,Clear,40,2013-10-09 05:53:00
2:53 AM,52.0,45.0,77,30.18,10.0,NNW,3.5,-,N/A,,Clear,330,2013-10-09 06:53:00
3:53 AM,50.0,44.1,80,30.16,10.0,Calm,Calm,-,N/A,,Clear,0,2013-10-09 07:53:00
4:53 AM,48.9,46.0,90,30.17,10.0,Calm,Calm,-,N/A,,Clear,0,2013-10-09 08:53:00
5:53 AM,48.0,45.0,89,30.18,10.0,Calm,Calm,-,N/A,,Clear,0,2013-10-09 09:53:00
6:53 AM,46.9,44.1,90,30.18,10.0,Calm,Calm,-,N/A,,Clear,0,2013-10-09 10:53:00
7:53 AM,48.0,45.0,89,30.20,10.0,Calm,Calm,-,N/A,,Clear,0,2013-10-09 11:53:00
8:53 AM,52.0,46.9,83,30.22,10.0,NNE,3.5,-,N/A,,Clear,30,2013-10-09 12:53:00
9:53 AM,55.9,46.9,72,30.23,10.0,Calm,Calm,-,N/A,,Clear,0,2013-10-09 13:53:00
10:53 AM,61.0,48.0,62,30.23,10.0,Calm,Calm,-,N/A,,Clear,0,2013-10-09 14:53:00
11:53 AM,64.9,51.1,61,30.23,10.0,Calm,Calm,-,N/A,,Clear,0,2013-10-09 15:53:00
12:53 PM,69.1,52.0,54,30.21,10.0,Calm,Calm,-,N/A,,Clear,0,2013-10-09 16:53:00
1:53 PM,71.1,52.0,51,30.19,10.0,Calm,Calm,-,N/A,,Clear,0,2013-10-09 17:53:00
2:53 PM,73.9,53.1,48,30.17,10.0,Calm,Calm,-,N/A,,Clear,0,2013-10-09 18:53:00
3:53 PM,75.0,53.1,46,30.15,10.0,NNW,4.6,-,N/A,,Clear,340,2013-10-09 19:53:00
4:53 PM,75.0,52.0,44,30.15,10.0,Calm,Calm,-,N/A,,Clear,0,2013-10-09 20:53:00
5:53 PM,75.0,53.1,46,30.15,10.0,NNW,4.6,-,N/A,,Clear,340,2013-10-09 21:53:00
6:53 PM,72.0,53.1,51,30.15,10.0,NNE,3.5,-,N/A,,Clear,30,2013-10-09 22:53:00
7:53 PM,66.9,53.1,61,30.15,10.0,Calm,Calm,-,N/A,,Clear,0,2013-10-09 23:53:00
8:53 PM,63.0,55.0,75,30.15,10.0,Calm,Calm,-,N/A,,Clear,0,2013-10-10 00:53:00
9:53 PM,62.1,53.1,72,30.16,10.0,Calm,Calm,-,N/A,,Clear,0,2013-10-10 01:53:00
10:53 PM,61.0,52.0,72,30.16,10.0,Calm,Calm,-,N/A,,Clear,0,2013-10-10 02:53:00
11:53 PM,59.0,51.1,75,30.15,10.0,Calm,Calm,-,N/A,,Clear,0,2013-10-10 03:53:00